Location: Central Falls
(41.8900°N, 71.3929°W)
Time: 14:37:43
(UTC+00:00)

Vanguard 1 Rocket - Pass Details

Date: 06 December 2023
Orbit: 654 x 4218 km, 34.3° (Epoch: 24 February)

Event Time Altitude Azimuth Distance (km) Brightness Sun altitude
Rises 10:26:21 0° 248° (WSW) 8,285 11.8 -16.6°
Reaches altitude 10° 10:32:38 10° 246° (WSW) 6,975 11.4 -15.5°
Maximum altitude 10:53:15 61° 173° (S) 2,804 10.0 -11.8°
Drops below altitude 10° 11:04:03 10° 97° (E) 3,908 12.1 -10.0°
Sets 11:06:31 0° 93° (E) 4,570 12.6 -9.5°
